Location: ?
(35.3544°N, 139.4507°E)
Time: 06:34:10
(UTC+00:00)

Nadezhda 2 Rocket - Pass Details

Date: 03 August 2024
Orbit: 947 x 1010 km, 83.0° (Epoch: 10 September)

Event Time Altitude Azimuth Distance (km) Brightness Sun altitude
Rises 18:47:39 0° 349° (N) 3,629 7.8 -12.7°
Reaches altitude 10° 18:50:10 10° 346° (NNW) 2,685 7.0 -12.3°
Maximum altitude 18:56:12 62° 268° (W) 1,074 4.5 -11.2°
Drops below altitude 10° 19:02:17 10° 188° (S) 2,705 6.5 -10.2°
Sets 19:04:49 0° 185° (S) 3,658 7.2 -9.7°
